Meteo Giornale » Osservazioni meteo Svezia » Stockholm-Arlanda

ore: 08:20 - Osservazioni Meteo Stockholm-Arlanda
Lat. 59° 39' N Lon. 17° 57' E Alt. 38 metri s.l.m.

molto_nuvoloso Europe/Stockholm

12 °C

Molto Nuvoloso

Temp. 24 Ore

11 °C

17 °C

Nord/NOvest

22.2 Km/h

Dew point 7 °C

Umidità 71 %

Visibilità  10 Km

Il sole sorge alle ore 03:27

Il sole tramonta alle ore 22:15

Data e Ora Cielo e Fenomeni T °C DP °C Um. % Pres. hPa Vis. km Vento km/h
Oggi h: 08:20 molto_nuvoloso Molto Nuvoloso 12 7 71 1015 10 N/NO 22.2
Oggi h: 07:50 nuvoloso Nuvoloso 11 7 76 1015 10 NO 24
Oggi h: 07:20 sereno Sereno 11 8 81 1015 10 N/NO 22.2
Oggi h: 06:50 sereno Sereno 11 8 81 1015 10 NO 22.2
Oggi h: 05:50 sereno Sereno 11 9 87 1015 10 N/NO 20.3
Oggi h: 05:20 sereno Sereno 11 9 87 1015 10 N/NO 22.2
Oggi h: 04:50 sereno Sereno 11 9 87 1014 10 N/NO 20.3
Oggi h: 04:20 sereno Sereno 11 10 93 1014 10 N/NO 20.3
Oggi h: 03:50 sereno Sereno 12 10 87 1014 10 N/NO 22.2
Oggi h: 03:20 sereno Sereno 12 12 100 1013 10 N/NO 18.5
Oggi h: 02:50 sereno Sereno 12 12 100 1013 10 N/NO 13
Oggi h: 02:20 sereno Sereno 13 12 93 1013 10 NO 13
Oggi h: 01:50 sereno Sereno 13 13 100 1013 10 N/NO 9.3
Oggi h: 01:20 nuvoloso Nuvoloso 14 13 93 1013 10 N/NO 11.1
Oggi h: 00:50 molto_nuvoloso Molto Nuvoloso 14 14 100 1013 10 N/NO 13
Oggi h: 00:20 molto_nuvoloso Molto Nuvoloso 14 14 100 1013 10 NO 9.3
Ieri h: 23:50 nebbia Banco di Nebbia 14 14 100 1013 5 N 5.5
Ieri h: 23:20 foschia Foschia 15 15 100 1013 5 N 0
Ieri h: 22:50 coperto_pioggia Pioggia Debole Foschia 15 15 100 1013 8 N 3.7
Ieri h: 22:20 coperto_pioggia Pioggia Debole 15 15 100 1013 7 N/NE 9.3
Ieri h: 21:50 molto_nuvoloso Molto Nuvoloso 15 15 100 1013 10 E/NE 7.4
Ieri h: 21:20 molto_nuvoloso Molto Nuvoloso 16 15 93 1013 10 N/NE 7.4
Ieri h: 20:50 poco_nuvoloso Poco Nuvoloso 16 15 93 1013 10 E/NE 7.4
Ieri h: 20:20 poco_nuvoloso Poco Nuvoloso 17 15 88 1013 10 NE 7.4
Ieri h: 19:50 poco_nuvoloso Poco Nuvoloso 17 14 82 1013 10 N 5.5
Ieri h: 19:20 molto_nuvoloso Molto Nuvoloso 17 15 88 1013 10 N 5.5
Ieri h: 18:50 molto_nuvoloso Molto Nuvoloso 17 15 88 1014 10 N 5.5
Ieri h: 17:50 molto_nuvoloso Molto Nuvoloso 17 15 88 1014 10 N 5.5
Ieri h: 16:50 molto_nuvoloso Molto Nuvoloso 16 15 93 1015 10 N 5.5
Ieri h: 16:20 molto_nuvoloso Molto Nuvoloso 16 15 93 1015 10 O 7.4
Ieri h: 15:50 molto_nuvoloso Molto Nuvoloso 16 15 93 1016 10 N 5.5
Ieri h: 15:20 molto_nuvoloso Molto Nuvoloso 16 15 93 1016 10 N 5.5
Ieri h: 14:50 coperto_pioggia Pioviggine Leggera 16 15 93 1016 10 N 5.5
Ieri h: 14:20 coperto_pioggia Pioviggine Leggera 16 15 93 1016 10 S 7.4
Ieri h: 13:50 coperto_pioggia Pioggia Debole 16 15 93 1017 10 S/SE 7.4
Ieri h: 13:20 coperto Coperto 15 14 93 1017 10 S 7.4
Ieri h: 12:50 coperto_pioggia Pioggia Debole 15 14 93 1017 10 S/SE 7.4
Ieri h: 12:20 coperto_pioggia Pioggia Debole 15 14 93 1018 10 S 7.4
Ieri h: 11:50 molto_nuvoloso Molto Nuvoloso 15 14 93 1018 10 S 9.3
Ieri h: 11:20 coperto_pioggia Pioviggine Leggera 15 14 93 1018 9 S/SE 9.3
Ieri h: 10:50 coperto_pioggia Pioviggine Leggera 15 14 93 1018 10 S/SE 7.4
Ieri h: 10:20 molto_nuvoloso Molto Nuvoloso 15 14 93 1018 9 S/SE 9.3
Ieri h: 09:50 coperto_pioggia Pioviggine Leggera 15 14 93 1018 9 S/SE 9.3
Ieri h: 09:20 coperto_pioggia Pioggia 14 14 100 1018 9 SE 9.3
Ieri h: 08:50 coperto_pioggia Pioggia Debole 14 14 100 1019 10 SE 9.3